P/2022 P2 ( ZTF )

Japanese version
Home page
Updated on March 27, 2023

---------------------------------------------------------------------

* Profile

Discovery Date August 15, 2022
Magnitude 18.5 mag
Discoverer Zwicky Transient Facility

* Pictures

* Orbital Elements

Epoch 2023 Feb. 25.0 TT = JDT 2460000.5
T 2022 July 10.81768 TT                                 Rudenko
q   1.9823790            (2000.0)            P               Q
n   0.10376303     Peri.  137.60356     +0.34632877     -0.91636439
a   4.4851222      Node   291.22933     +0.79253517     +0.40034521
e   0.5580100      Incl.   12.44198     +0.50194062     +0.00015080
P   9.50
>From 162 observations 2022 Aug. 9-2023 Mar. 18, mean residual 0".8.

* Magnitudes Graph

        m1 =  13.5 + 5 log d + 10.0 log r           [   , 30]  (             - 2022 Aug.  9)
        m1 = -15   + 5 log d + 50   log r(t + 400)  [ 30,142]  (2022 Aug.  9 - 2022 Nov. 29)
        m1 =  13.5 + 5 log d + 10.0 log r           [142,   ]  (2022 Nov. 29 -             )

---------------------------------------------------------------------

The orbital elements are published on M.P.E.C. 2023-F81.
The magnitudes graphs are made with Comet for Windows.

---------------------------------------------------------------------

Copyright(C) Seiichi Yoshida (comet@aerith.net). All rights reserved.